ETH333 HUEN-HAAB

Flight info

Callsign ETH333
Flight time 1h 35m
Altitude 39000
Route IMVIP1B IMVIP UL432 EKBUL EKBUL1A
Aircraft B77W/H-SDE1E2E3FGHIJ2J3J4J5M1RWXY/LB1D1

Departure

Time 2026-05-04 10:39
Airport Entebbe International Airport (HUEN)

Arrival

Time 2026-05-04 12:14
Airport Addis Ababa Bole International Airport (HAAB)
Time Latitude Longitude Altitude Speed Heading
2026-05-04 09:51 0.04532 32.44193 3790 ft 0 kts 82°
2026-05-04 10:30 0.04530 32.44184 3785 ft 4 kts 82°
2026-05-04 10:30 0.04527 32.44157 3791 ft 4 kts 82°
2026-05-04 10:30 0.04523 32.44133 3786 ft 3 kts 81°
2026-05-04 10:31 0.04516 32.44110 3786 ft 4 kts 41°
2026-05-04 10:31 0.04494 32.44102 3789 ft 4 kts 353°
2026-05-04 10:32 0.04461 32.44108 3789 ft 0 kts 352°
2026-05-04 10:34 0.04474 32.44107 3793 ft 6 kts 352°
2026-05-04 10:34 0.04547 32.44096 3791 ft 16 kts 352°
2026-05-04 10:34 0.04684 32.44077 3787 ft 22 kts 352°
2026-05-04 10:35 0.04833 32.44054 3790 ft 22 kts 339°
2026-05-04 10:35 0.04930 32.44007 3797 ft 14 kts 346°
2026-05-04 10:35 0.05025 32.43994 3794 ft 14 kts 353°
2026-05-04 10:35 0.05130 32.43977 3798 ft 16 kts 350°
2026-05-04 10:36 0.05241 32.43960 3797 ft 16 kts 345°
2026-05-04 10:36 0.05331 32.43893 3791 ft 17 kts 304°
2026-05-04 10:36 0.05398 32.43788 3793 ft 19 kts 302°
2026-05-04 10:36 0.05470 32.43682 3792 ft 10 kts 282°
2026-05-04 10:37 0.05428 32.43643 3789 ft 9 kts 181°
2026-05-04 10:37 0.05406 32.43643 3786 ft 4 kts 179°
2026-05-04 10:37 0.05401 32.43643 3786 ft 0 kts 179°
2026-05-04 10:37 0.05364 32.43648 3793 ft 19 kts 172°
2026-05-04 10:39 -0.01879 32.44775 6838 ft 230 kts 171°
2026-05-04 10:39 -0.03515 32.44989 7314 ft 245 kts 171°
2026-05-04 10:39 -0.05194 32.45242 8049 ft 247 kts 169°
2026-05-04 10:40 -0.06959 32.45580 8362 ft 272 kts 162°
2026-05-04 10:40 -0.08701 32.46397 8718 ft 291 kts 141°
2026-05-04 10:40 -0.10041 32.47871 9657 ft 286 kts 121°
2026-05-04 10:40 -0.10894 32.49701 10274 ft 295 kts 103°
2026-05-04 10:41 -0.11046 32.51703 11306 ft 290 kts 86°
2026-05-04 10:41 -0.10862 32.53802 11557 ft 316 kts 83°
2026-05-04 10:41 -0.10437 32.56061 11824 ft 342 kts 76°
2026-05-04 10:41 -0.09858 32.58434 12298 ft 358 kts 76°
2026-05-04 10:42 -0.08802 32.60717 12787 ft 373 kts 52°
2026-05-04 10:42 -0.06892 32.62502 13697 ft 378 kts 37°
2026-05-04 10:42 -0.04712 32.64014 14524 ft 384 kts 35°
2026-05-04 10:42 -0.02473 32.65504 15340 ft 389 kts 34°
2026-05-04 10:43 -0.00192 32.67001 16144 ft 395 kts 34°
2026-05-04 10:44 0.16605 32.78152 21295 ft 429 kts 35°
2026-05-04 10:45 0.19098 32.79821 21983 ft 434 kts 35°
2026-05-04 10:45 0.21619 32.81509 22669 ft 438 kts 35°
2026-05-04 10:45 0.24163 32.83212 23352 ft 442 kts 35°
2026-05-04 10:45 0.26732 32.84933 23933 ft 446 kts 35°
2026-05-04 10:46 0.29316 32.86663 24492 ft 449 kts 35°
2026-05-04 10:46 0.31920 32.88406 25078 ft 452 kts 35°
2026-05-04 10:46 0.34546 32.90164 25635 ft 455 kts 35°
2026-05-04 10:46 0.37158 32.91912 26146 ft 459 kts 35°
2026-05-04 10:47 0.38952 32.93113 26507 ft 461 kts 35°
2026-05-04 10:47 0.41627 32.94904 27037 ft 465 kts 35°
2026-05-04 10:47 0.45200 32.97296 27760 ft 468 kts 35°
2026-05-04 10:47 0.47918 32.99115 28290 ft 471 kts 35°
2026-05-04 10:49 0.66467 33.11534 31160 ft 490 kts 35°
2026-05-04 10:49 0.69302 33.13432 31602 ft 490 kts 35°
2026-05-04 10:50 0.72127 33.15323 32121 ft 488 kts 35°
2026-05-04 10:51 0.89911 33.30234 35423 ft 473 kts 47°
2026-05-04 10:52 0.92198 33.32598 35827 ft 472 kts 47°
2026-05-04 10:52 0.94482 33.34947 36220 ft 471 kts 47°
2026-05-04 10:52 0.96769 33.37292 36549 ft 472 kts 47°
2026-05-04 10:54 1.12907 33.53773 36925 ft 470 kts 47°
2026-05-04 10:54 1.15193 33.56108 36922 ft 470 kts 47°
2026-05-04 10:56 1.31245 33.72508 38821 ft 473 kts 47°
2026-05-04 10:56 1.33559 33.74872 38864 ft 475 kts 47°
2026-05-04 10:57 1.38167 33.79579 38906 ft 472 kts 47°
2026-05-04 10:57 1.42711 33.84222 38909 ft 468 kts 47°
2026-05-04 10:58 1.47261 33.88872 38916 ft 467 kts 47°
2026-05-04 10:58 1.51796 33.93506 38919 ft 466 kts 47°
2026-05-04 10:59 1.56331 33.98141 38921 ft 466 kts 47°
2026-05-04 10:59 1.60874 34.02785 38911 ft 467 kts 47°
2026-05-04 11:00 1.65419 34.07431 38912 ft 468 kts 47°
2026-05-04 11:02 1.83649 34.26161 38910 ft 470 kts 50°
2026-05-04 11:05 2.15487 34.63314 38929 ft 468 kts 51°
2026-05-04 11:06 2.19702 34.68227 38930 ft 468 kts 51°
2026-05-04 11:06 2.23946 34.73176 38926 ft 468 kts 50°
2026-05-04 11:10 2.54439 35.06838 38909 ft 468 kts 45°
2026-05-04 11:12 2.73164 35.24899 38884 ft 468 kts 45°
2026-05-04 11:12 2.77846 35.29425 38882 ft 468 kts 45°
2026-05-04 11:13 2.82534 35.33958 38881 ft 468 kts 45°
2026-05-04 11:13 2.87225 35.38493 38875 ft 468 kts 45°
2026-05-04 11:14 2.91912 35.43025 38873 ft 468 kts 45°
2026-05-04 11:16 3.10796 35.60903 38901 ft 469 kts 38°
2026-05-04 11:16 3.16361 35.64332 38868 ft 471 kts 30°
2026-05-04 11:17 3.22184 35.67345 38861 ft 471 kts 29°
2026-05-04 11:19 3.45387 35.79484 38863 ft 471 kts 29°
2026-05-04 11:19 3.51202 35.82545 38866 ft 471 kts 29°
2026-05-04 11:20 3.57010 35.85601 38859 ft 472 kts 29°
2026-05-04 11:20 3.62821 35.88659 38858 ft 472 kts 29°
2026-05-04 11:22 3.86035 36.00882 38859 ft 472 kts 29°
2026-05-04 11:23 3.91850 36.03946 38848 ft 472 kts 29°
2026-05-04 11:25 4.12220 36.14667 38850 ft 472 kts 29°
2026-05-04 11:25 4.18040 36.17729 38847 ft 472 kts 29°
2026-05-04 11:27 4.44214 36.31509 38843 ft 473 kts 29°
2026-05-04 11:28 4.50033 36.34574 38840 ft 473 kts 29°
2026-05-04 11:28 4.55861 36.37645 38849 ft 473 kts 29°
2026-05-04 11:29 4.61689 36.40716 38844 ft 473 kts 29°
2026-05-04 11:29 4.67514 36.43787 38847 ft 473 kts 29°
2026-05-04 11:33 5.08228 36.65261 38880 ft 472 kts 29°
2026-05-04 11:33 5.14032 36.68325 38883 ft 471 kts 29°
2026-05-04 11:34 5.19841 36.71393 38875 ft 471 kts 28°
2026-05-04 11:34 5.24661 36.73938 38884 ft 471 kts 28°
2026-05-04 11:35 5.30463 36.77003 38876 ft 470 kts 28°
2026-05-04 11:35 5.36256 36.80063 38885 ft 470 kts 28°
2026-05-04 11:36 5.42008 36.83102 38888 ft 469 kts 28°
2026-05-04 11:36 5.47779 36.86152 38885 ft 469 kts 28°
2026-05-04 11:37 5.53544 36.89200 38905 ft 468 kts 28°
2026-05-04 11:37 5.59294 36.92241 38903 ft 467 kts 28°
2026-05-04 11:38 5.65036 36.95277 38908 ft 466 kts 28°
2026-05-04 11:38 5.70775 36.98313 38916 ft 466 kts 29°
2026-05-04 11:39 5.76476 37.01330 38930 ft 466 kts 28°
2026-05-04 11:41 5.96575 37.11971 38937 ft 467 kts 28°
2026-05-04 11:41 6.02331 37.15020 38938 ft 468 kts 28°
2026-05-04 11:42 6.08088 37.18070 38943 ft 468 kts 28°
2026-05-04 11:42 6.13857 37.21127 38945 ft 468 kts 28°
2026-05-04 11:43 6.19621 37.24182 38935 ft 468 kts 28°
2026-05-04 11:43 6.25350 37.27220 38945 ft 466 kts 28°
2026-05-04 11:44 6.31083 37.30261 38939 ft 465 kts 28°
2026-05-04 11:44 6.36794 37.33290 38950 ft 463 kts 28°
2026-05-04 11:45 6.42497 37.36316 38930 ft 463 kts 28°
2026-05-04 11:45 6.48157 37.39321 38931 ft 463 kts 28°
2026-05-04 11:46 6.53851 37.42343 38928 ft 462 kts 28°
2026-05-04 11:46 6.59551 37.45370 38937 ft 464 kts 28°
2026-05-04 11:47 6.65264 37.48404 38923 ft 465 kts 28°
2026-05-04 11:47 6.70991 37.51447 38917 ft 465 kts 28°
2026-05-04 11:48 6.76715 37.54490 38911 ft 465 kts 28°
2026-05-04 11:48 6.82410 37.57517 38914 ft 465 kts 28°
2026-05-04 11:49 6.88136 37.60561 38907 ft 465 kts 28°
2026-05-04 11:49 6.93858 37.63604 38913 ft 465 kts 28°
2026-05-04 11:50 6.99579 37.66648 38917 ft 465 kts 28°
2026-05-04 11:50 7.05303 37.69695 38916 ft 465 kts 28°
2026-05-04 11:51 7.11029 37.72743 38931 ft 465 kts 29°
2026-05-04 11:51 7.16739 37.75782 38925 ft 464 kts 28°
2026-05-04 11:52 7.22434 37.78816 38924 ft 462 kts 28°
2026-05-04 11:52 7.25235 37.80308 38652 ft 462 kts 30°
2026-05-04 11:52 7.28071 37.81820 38242 ft 458 kts 29°
2026-05-04 11:52 7.30881 37.83318 37743 ft 454 kts 30°
2026-05-04 11:53 7.33657 37.84796 37280 ft 449 kts 28°
2026-05-04 11:53 7.36408 37.86261 36832 ft 445 kts 29°
2026-05-04 11:53 7.39137 37.87716 36381 ft 441 kts 29°
2026-05-04 11:53 7.41838 37.89158 35938 ft 438 kts 28°
2026-05-04 11:55 7.60383 37.99051 32639 ft 425 kts 28°
2026-05-04 11:55 7.62993 38.00444 32169 ft 423 kts 28°
2026-05-04 11:56 7.65590 38.01830 31727 ft 421 kts 28°
2026-05-04 11:56 7.68177 38.03212 31265 ft 419 kts 28°
2026-05-04 11:56 7.70753 38.04588 30815 ft 418 kts 29°
2026-05-04 11:56 7.73283 38.05939 30368 ft 417 kts 28°
2026-05-04 11:57 7.75845 38.07308 29891 ft 416 kts 29°
2026-05-04 11:57 7.78401 38.08673 29385 ft 415 kts 28°
2026-05-04 11:57 7.80942 38.10032 28885 ft 412 kts 28°
2026-05-04 11:57 7.83470 38.11383 28426 ft 410 kts 28°
2026-05-04 11:58 7.85985 38.12727 27971 ft 407 kts 28°
2026-05-04 11:58 7.88483 38.14062 27517 ft 405 kts 28°
2026-05-04 11:58 7.90968 38.15391 27059 ft 403 kts 28°
2026-05-04 11:58 7.93445 38.16715 26619 ft 401 kts 28°
2026-05-04 11:59 7.95905 38.18031 26163 ft 400 kts 28°
2026-05-04 11:59 7.98358 38.19343 25721 ft 398 kts 28°
2026-05-04 11:59 8.00801 38.20650 25277 ft 397 kts 28°
2026-05-04 11:59 8.03209 38.21938 24835 ft 396 kts 28°
2026-05-04 12:00 8.05646 38.23243 24387 ft 395 kts 27°
2026-05-04 12:00 8.08079 38.24545 23936 ft 395 kts 27°
2026-05-04 12:00 8.10509 38.25846 23497 ft 394 kts 27°
2026-05-04 12:00 8.12930 38.27141 22989 ft 393 kts 28°
2026-05-04 12:01 8.15344 38.28418 22517 ft 390 kts 26°
2026-05-04 12:01 8.17825 38.29515 22068 ft 387 kts 21°
2026-05-04 12:02 8.32580 38.35261 19482 ft 372 kts 22°
2026-05-04 12:03 8.34983 38.36228 19035 ft 371 kts 22°
2026-05-04 12:03 8.37370 38.37190 18605 ft 369 kts 23°
2026-05-04 12:03 8.39749 38.38151 18160 ft 366 kts 24°
2026-05-04 12:03 8.42107 38.39103 17681 ft 364 kts 22°
2026-05-04 12:04 8.44450 38.40046 17234 ft 360 kts 23°
2026-05-04 12:04 8.46770 38.40980 16811 ft 357 kts 23°
2026-05-04 12:04 8.49063 38.41906 16395 ft 354 kts 23°
2026-05-04 12:04 8.51307 38.42810 15992 ft 348 kts 24°
2026-05-04 12:05 8.53503 38.43695 15576 ft 329 kts 24°
2026-05-04 12:05 8.55575 38.44530 15190 ft 313 kts 24°
2026-05-04 12:05 8.57547 38.45324 14848 ft 297 kts 24°
2026-05-04 12:05 8.59419 38.46079 14598 ft 280 kts 24°
2026-05-04 12:06 8.61171 38.46787 14452 ft 261 kts 24°
2026-05-04 12:06 8.62798 38.47444 14319 ft 244 kts 24°
2026-05-04 12:06 8.64378 38.48084 14237 ft 250 kts 24°
2026-05-04 12:06 8.66047 38.48762 14125 ft 264 kts 24°
2026-05-04 12:07 8.67749 38.49449 13867 ft 265 kts 25°
2026-05-04 12:07 8.69443 38.50160 13564 ft 263 kts 27°
2026-05-04 12:07 8.71061 38.51004 13264 ft 260 kts 30°
2026-05-04 12:07 8.72642 38.51877 13007 ft 258 kts 31°
2026-05-04 12:08 8.74208 38.52742 12756 ft 255 kts 31°
2026-05-04 12:08 8.75763 38.53593 12520 ft 253 kts 30°
2026-05-04 12:08 8.77314 38.54433 12288 ft 252 kts 30°
2026-05-04 12:08 8.78842 38.55259 12089 ft 252 kts 31°
2026-05-04 12:09 8.80394 38.56096 11859 ft 253 kts 31°
2026-05-04 12:09 8.81957 38.56939 11623 ft 255 kts 31°
2026-05-04 12:09 8.83427 38.57914 11400 ft 252 kts 41°
2026-05-04 12:09 8.84763 38.59045 11202 ft 248 kts 43°
2026-05-04 12:10 8.86046 38.60146 10943 ft 237 kts 42°
2026-05-04 12:10 8.87267 38.61197 10740 ft 225 kts 42°
2026-05-04 12:10 8.88504 38.62148 10530 ft 223 kts 37°
2026-05-04 12:10 8.89763 38.63067 10363 ft 223 kts 38°
2026-05-04 12:11 8.91014 38.63981 10136 ft 219 kts 38°
2026-05-04 12:11 8.92224 38.64871 9985 ft 209 kts 43°
2026-05-04 12:11 8.93045 38.66010 9747 ft 195 kts 66°
2026-05-04 12:11 8.93621 38.67218 9597 ft 185 kts 65°
2026-05-04 12:12 8.94192 38.68355 9459 ft 177 kts 65°
2026-05-04 12:12 8.94682 38.69472 9362 ft 179 kts 73°
2026-05-04 12:12 8.95044 38.70698 9376 ft 186 kts 76°
2026-05-04 12:12 8.95410 38.71994 9158 ft 197 kts 74°
2026-05-04 12:13 8.95771 38.73309 8877 ft 188 kts 75°
2026-05-04 12:14 8.97898 38.80612 7625 ft 21 kts 69°
2026-05-04 12:15 8.97936 38.80747 7624 ft 19 kts 75°
2026-05-04 12:15 8.97967 38.80869 7622 ft 18 kts 76°
2026-05-04 12:15 8.98001 38.80987 7620 ft 17 kts 73°
2026-05-04 12:15 8.98039 38.81103 7620 ft 17 kts 70°
2026-05-04 12:16 8.98120 38.81189 7623 ft 17 kts 37°
2026-05-04 12:16 8.98211 38.81271 7632 ft 17 kts 32°
2026-05-04 12:16 8.98279 38.81242 7637 ft 12 kts 265°
2026-05-04 12:16 8.98251 38.81151 7636 ft 15 kts 252°
2026-05-04 12:17 8.98209 38.81014 7636 ft 26 kts 255°
2026-05-04 12:17 8.98159 38.80816 7633 ft 30 kts 255°
2026-05-04 12:17 8.98094 38.80616 7634 ft 30 kts 253°
2026-05-04 12:17 8.98035 38.80414 7634 ft 30 kts 253°
2026-05-04 12:18 8.97977 38.80213 7633 ft 30 kts 253°
2026-05-04 12:18 8.97920 38.80013 7631 ft 30 kts 254°
2026-05-04 12:18 8.97888 38.79902 7630 ft 6 kts 254°
2026-05-04 12:18 8.97883 38.79862 7629 ft 6 kts 285°
2026-05-04 12:19 8.97914 38.79830 7629 ft 7 kts 332°
2026-05-04 12:19 8.97976 38.79803 7629 ft 12 kts 339°
2026-05-04 12:19 8.98072 38.79773 7629 ft 17 kts 344°
2026-05-04 12:19 8.98178 38.79757 7629 ft 11 kts 31°
2026-05-04 12:20 8.98238 38.79800 7629 ft 10 kts 353°
2026-05-04 12:20 8.98266 38.79785 7629 ft 2 kts 331°
2026-05-04 12:20 8.98273 38.79783 7629 ft 1 kts 342°
2026-05-04 12:21 8.98276 38.79782 7629 ft 0 kts 341°
2026-05-04 12:21 8.98278 38.79781 7629 ft 0 kts 341°